QPF
0.00 0.00 0.00 0.00 0.00 0.00 0.00 0.00 0.00 0.00 0.00 0.00 0.00 0.01 0.02 0.04 0.04 0.05 0.05 0.04 0.04 0.03 0.03 0.02 0.02 0.01 0.00 0.01 0.01 0.01 0.01 0.01 0.02 0.01 0.01 0.01 0.00 0.01 0.00 0.00 0.00 0.00 0.00 0.00
0.00 0.00 0.00 0.00 0.00 0.00 0.00 0.00 0.00 0.00 0.00 0.01 0.01 0.02 0.03 0.04 0.06 0.07 0.06 0.03 0.02 0.04 0.04 0.03 0.01 0.00 0.00 0.00 0.00 0.01 0.01 0.01 0.00 0.00 0.00 0.00 0.00 0.00 0.00 0.00 0.00 0.00 0.00 0.00
0.00 0.00 0.00 0.00 0.00 0.00 0.00 0.00 0.00 0.00 0.00 0.00 0.01 0.02 0.03 0.03 0.04 0.05 0.04 0.02 0.02 0.02 0.02 0.01 0.01 0.00 0.00 0.00 0.00 0.00 0.00 0.00 0.00 0.00 0.00 0.00 0.00 0.00 0.00 0.00 0.00 0.00 0.00 0.00
0.00 0.00 0.00 0.00 0.00 0.00 0.00 0.00 0.00 0.00 0.00 0.00 0.01 0.02 0.01 0.02 0.03 0.04 0.04 0.02 0.01 0.01 0.01 0.01 0.01 0.00 0.00 0.00 0.00 0.00 0.00 0.00 0.00 0.00 0.00 0.00 0.00 0.00 0.00 0.00 0.00 0.00 0.00 0.00
0.00 0.00 0.00 0.00 0.00 0.00 0.00 0.00 0.00 0.00 0.00 0.00 0.00 0.01 0.01 0.01 0.01 0.01 0.02 0.01 0.01 0.00 0.00 0.00 0.00 0.00 0.00 0.00 0.00 0.00 0.01 0.01 0.00 0.00 0.00 0.01 0.00 0.00 0.00 0.00 0.00 0.00 0.00 0.00
0.00 0.00 0.00 0.00 0.00 0.00 0.00 0.00 0.00 0.00 0.00 0.01 0.00 0.00 0.00 0.00 0.01 0.00 0.00 0.01 0.01 0.00 0.00 0.00 0.00 0.00 0.00 0.00 0.00 0.00 0.00 0.01 0.00 0.00 0.00 0.00 0.00 0.00 0.00 0.00 0.00 0.00 0.00 0.00
0.00 0.00 0.00 0.00 0.00 0.00 0.00 0.00 0.01 0.00 0.00 0.00 0.00 0.00 0.00 0.00 0.00 0.00 0.00 0.00 0.00 0.00 0.00 0.00 0.00 0.00 0.00 0.00 0.00 0.00 0.00 0.00 0.00 0.00 0.00 0.00 0.00 0.00 0.00 0.00 0.00 0.00 0.00 0.00
0.00 0.00 0.00 0.00 0.00 0.00 0.00 0.00 0.01 0.01 0.00 0.00 0.00 0.00 0.00 0.00 0.00 0.00 0.00 0.00 0.00 0.00 0.00 0.00 0.00 0.00 0.00 0.00 0.00 0.00 0.00 0.00 0.00 0.00 0.00 0.00 0.00 0.00 0.00 0.00 0.00 0.00 0.00 0.00
0.00 0.00 0.00 0.00 0.00 0.00 0.00 0.00 0.00 0.00 0.00 0.00 0.00 0.00 0.00 0.00 0.00 0.00 0.00 0.00 0.00 0.00 0.00 0.00 0.00 0.00 0.00 0.00 0.00 0.00 0.00 0.00 0.00 0.00 0.00 0.00 0.00 0.00 0.00 0.00 0.00 0.00 0.00 0.00
0.00 0.00 0.00 0.00 0.00 0.00 0.00 0.00 0.00 0.00 0.00 0.00 0.00 0.00 0.00 0.00 0.00 0.00 0.00 0.00 0.00 0.00 0.00 0.00 0.00 0.00 0.00 0.00 0.00 0.00 0.00 0.00 0.00 0.00 0.00 0.00 0.00 0.00 0.00 0.00 0.00 0.00 0.00 0.00
0.00 0.00 0.00 0.00 0.00 0.00 0.00 0.00 0.00 0.00 0.00 0.00 0.00 0.00 0.00 0.00 0.00 0.00 0.00 0.00 0.00 0.00 0.00 0.00 0.00 0.00 0.00 0.00 0.00 0.00 0.00 0.00 0.00 0.00 0.00 0.00 0.00 0.00 0.00 0.00 0.00 0.00 0.00 0.00
0.00 0.00 0.00 0.00 0.00 0.00 0.00 0.00 0.00 0.00 0.00 0.00 0.00 0.00 0.00 0.00 0.00 0.00 0.00 0.00 0.00 0.00 0.00 0.00 0.00 0.00 0.00 0.00 0.00 0.00 0.00 0.00 0.00 0.00 0.00 0.00 0.00 0.00 0.00 0.00 0.00 0.00 0.00 0.00
0.00 0.00 0.00 0.00 0.00 0.00 0.00 0.00 0.00 0.00 0.00 0.00 0.00 0.00 0.00 0.00 0.00 0.00 0.00 0.00 0.00 0.00 0.00 0.00 0.00 0.00 0.00 0.00 0.00 0.00 0.00 0.00 0.00 0.00 0.00 0.00 0.00 0.00 0.00 0.00 0.00 0.00 0.00 0.00
0.00 0.00 0.00 0.00 0.00 0.00 0.00 0.00 0.00 0.00 0.00 0.00 0.00 0.00 0.00 0.00 0.00 0.00 0.00 0.00 0.00 0.00 0.00 0.00 0.00 0.00 0.00 0.00 0.00 0.00 0.00 0.00 0.00 0.00 0.00 0.00 0.00 0.00 0.00 0.00 0.00 0.00 0.00 0.00
0.00 0.00 0.00 0.00 0.00 0.00 0.00 0.00 0.00 0.00 0.00 0.00 0.00 0.00 0.00 0.00 0.00 0.00 0.00 0.00 0.00 0.00 0.00 0.00 0.00 0.00 0.00 0.00 0.00 0.00 0.00 0.00 0.00 0.00 0.00 0.00 0.00 0.00 0.00 0.00 0.00 0.00 0.00 0.00
0.00 0.00 0.00 0.00 0.00 0.00 0.00 0.00 0.00 0.00 0.00 0.00 0.00 0.00 0.00 0.00 0.00 0.00 0.00 0.00 0.00 0.00 0.00 0.00 0.00 0.00 0.00 0.00 0.00 0.00 0.00 0.00 0.00 0.00 0.00 0.00 0.00 0.00 0.00 0.00 0.00 0.00 0.00 0.00
0.00 0.00 0.00 0.00 0.00 0.00 0.00 0.00 0.00 0.00 0.00 0.00 0.00 0.00 0.00 0.00 0.00 0.00 0.00 0.00 0.00 0.00 0.00 0.00 0.00 0.00 0.00 0.00 0.00 0.00 0.00 0.00 0.00 0.00 0.00 0.00 0.00 0.00 0.00 0.00 0.00 0.00 0.00 0.00
0.00 0.00 0.00 0.00 0.00 0.00 0.00 0.00 0.00 0.00 0.00 0.00 0.00 0.00 0.00 0.00 0.00 0.00 0.00 0.00 0.00 0.00 0.00 0.00 0.00 0.00 0.00 0.00 0.00 0.00 0.00 0.00 0.00 0.00 0.00 0.00 0.00 0.00 0.00 0.00 0.00 0.00 0.00 0.00
0.00 0.01 0.00 0.00 0.00 0.00 0.00 0.00 0.00 0.00 0.00 0.00 0.00 0.00 0.00 0.00 0.00 0.00 0.00 0.00 0.00 0.00 0.00 0.00 0.00 0.00 0.00 0.00 0.00 0.00 0.00 0.00 0.00 0.00 0.00 0.00 0.00 0.00 0.00 0.00 0.00 0.00 0.00 0.00
0.01 0.01 0.01 0.01 0.00 0.00 0.00 0.00 0.00 0.00 0.00 0.00 0.00 0.00 0.00 0.00 0.00 0.00 0.00 0.00 0.00 0.00 0.00 0.00 0.00 0.00 0.00 0.00 0.00 0.00 0.00 0.00 0.00 0.00 0.00 0.00 0.00 0.00 0.00 0.00 0.00 0.00 0.00 0.00
0.01 0.01 0.01 0.01 0.01 0.00 0.00 0.00 0.00 0.00 0.00 0.00 0.00 0.00 0.00 0.00 0.00 0.00 0.00 0.00 0.00 0.00 0.00 0.00 0.00 0.00 0.00 0.00 0.00 0.00 0.00 0.00 0.00 0.00 0.00 0.00 0.00 0.00 0.00 0.00 0.00 0.00 0.00 0.00
0.00 0.00 0.01 0.01 0.01 0.00 0.00 0.00 0.00 0.00 0.00 0.00 0.00 0.00 0.00 0.00 0.00 0.00 0.00 0.00 0.00 0.00 0.00 0.00 0.00 0.00 0.00 0.00 0.00 0.00 0.00 0.00 0.00 0.00 0.00 0.00 0.00 0.00 0.00 0.00 0.00 0.00 0.00 0.00
0.00 0.00 0.00 0.00 0.00 0.00 0.00 0.00 0.00 0.00 0.00 0.00 0.00 0.00 0.00 0.00 0.00 0.00 0.00 0.00 0.00 0.00 0.00 0.00 0.00 0.00 0.00 0.00 0.00 0.00 0.00 0.00 0.00 0.00 0.00 0.00 0.00 0.00 0.00 0.00 0.00 0.00 0.01 0.01
0.00 0.00 0.00 0.00 0.00 0.00 0.00 0.00 0.00 0.00 0.00 0.00 0.00 0.00 0.00 0.00 0.00 0.00 0.00 0.00 0.00 0.00 0.00 0.00 0.00 0.00 0.00 0.00 0.00 0.00 0.00 0.00 0.00 0.00 0.00 0.00 0.00 0.00 0.00 0.00 0.01 0.01 0.01 0.01
0.00 0.00 0.00 0.00 0.00 0.00 0.00 0.00 0.00 0.00 0.00 0.00 0.00 0.00 0.00 0.00 0.00 0.00 0.00 0.00 0.00 0.00 0.00 0.00 0.00 0.00 0.00 0.00 0.00 0.00 0.00 0.00 0.00 0.00 0.00 0.00 0.00 0.00 0.00 0.00 0.01 0.01 0.01 0.01
0.00 0.00 0.00 0.00 0.00 0.00 0.00 0.00 0.00 0.00 0.00 0.00 0.00 0.00 0.00 0.00 0.00 0.00 0.00 0.00 0.00 0.00 0.00 0.00 0.00 0.00 0.00 0.00 0.00 0.00 0.00 0.00 0.00 0.00 0.00 0.00 0.00 0.00 0.00 0.00 0.00 0.00 0.00 0.00
MSLP
1012.05 1012.40 1012.64 1012.80 1012.89 1012.98 1013.09 1013.25 1013.46 1013.72 1014.01 1014.28 1014.54 1014.74 1014.90 1015.01 1015.08 1015.13 1015.17 1015.21 1015.25 1015.29 1015.33 1015.37 1015.42 1015.49 1015.58 1015.70 1015.85 1016.03 1016.22 1016.40 1016.57 1016.70 1016.81 1016.88 1016.93 1016.97 1017.00 1017.02 1017.05 1017.06 1017.05 1017.01
1012.14 1012.45 1012.66 1012.80 1012.91 1013.03 1013.19 1013.42 1013.72 1014.04 1014.38 1014.68 1014.92 1015.09 1015.18 1015.21 1015.20 1015.18 1015.17 1015.17 1015.20 1015.23 1015.27 1015.32 1015.37 1015.43 1015.51 1015.62 1015.76 1015.95 1016.16 1016.38 1016.60 1016.78 1016.92 1017.01 1017.05 1017.06 1017.05 1017.03 1017.00 1016.97 1016.95 1016.91
1012.11 1012.37 1012.54 1012.66 1012.78 1012.95 1013.19 1013.50 1013.88 1014.28 1014.67 1014.99 1015.21 1015.33 1015.35 1015.29 1015.19 1015.10 1015.02 1014.99 1014.99 1015.02 1015.08 1015.13 1015.19 1015.25 1015.33 1015.44 1015.59 1015.79 1016.03 1016.29 1016.55 1016.78 1016.96 1017.08 1017.13 1017.13 1017.08 1017.02 1016.96 1016.91 1016.87 1016.85
1011.96 1012.15 1012.28 1012.39 1012.53 1012.75 1013.06 1013.47 1013.94 1014.42 1014.85 1015.18 1015.38 1015.44 1015.38 1015.22 1015.03 1014.85 1014.71 1014.64 1014.63 1014.67 1014.74 1014.82 1014.90 1014.98 1015.07 1015.19 1015.35 1015.57 1015.83 1016.13 1016.43 1016.70 1016.92 1017.08 1017.15 1017.15 1017.10 1017.01 1016.93 1016.86 1016.82 1016.80
1011.74 1011.86 1011.93 1012.02 1012.19 1012.46 1012.85 1013.35 1013.91 1014.46 1014.93 1015.26 1015.43 1015.42 1015.27 1015.01 1014.72 1014.46 1014.26 1014.15 1014.14 1014.19 1014.30 1014.42 1014.54 1014.65 1014.77 1014.91 1015.08 1015.31 1015.59 1015.91 1016.25 1016.56 1016.82 1017.01 1017.11 1017.12 1017.07 1016.98 1016.89 1016.81 1016.75 1016.73
1011.52 1011.55 1011.58 1011.66 1011.84 1012.16 1012.62 1013.20 1013.83 1014.42 1014.92 1015.24 1015.36 1015.27 1015.02 1014.66 1014.28 1013.93 1013.68 1013.55 1013.54 1013.63 1013.78 1013.96 1014.14 1014.31 1014.46 1014.62 1014.81 1015.05 1015.34 1015.68 1016.03 1016.37 1016.66 1016.88 1017.00 1017.03 1016.99 1016.90 1016.80 1016.71 1016.64 1016.60
1011.35 1011.32 1011.30 1011.37 1011.57 1011.92 1012.44 1013.06 1013.73 1014.35 1014.83 1015.12 1015.18 1015.01 1014.66 1014.20 1013.73 1013.32 1013.03 1012.88 1012.90 1013.03 1013.25 1013.50 1013.75 1013.98 1014.18 1014.38 1014.59 1014.83 1015.12 1015.45 1015.80 1016.15 1016.45 1016.68 1016.82 1016.87 1016.83 1016.75 1016.63 1016.52 1016.44 1016.38
1011.29 1011.21 1011.16 1011.22 1011.42 1011.80 1012.33 1012.97 1013.64 1014.24 1014.70 1014.93 1014.91 1014.66 1014.22 1013.68 1013.13 1012.67 1012.35 1012.21 1012.25 1012.44 1012.74 1013.07 1013.40 1013.70 1013.96 1014.20 1014.42 1014.67 1014.94 1015.25 1015.58 1015.91 1016.20 1016.43 1016.57 1016.62 1016.58 1016.49 1016.37 1016.24 1016.13 1016.04
1011.32 1011.22 1011.16 1011.21 1011.41 1011.78 1012.30 1012.92 1013.56 1014.11 1014.50 1014.66 1014.56 1014.23 1013.72 1013.11 1012.51 1012.02 1011.70 1011.58 1011.67 1011.92 1012.29 1012.70 1013.12 1013.49 1013.81 1014.08 1014.32 1014.56 1014.81 1015.09 1015.38 1015.67 1015.93 1016.13 1016.25 1016.29 1016.24 1016.14 1016.00 1015.85 1015.72 1015.61
1011.42 1011.33 1011.27 1011.32 1011.51 1011.85 1012.33 1012.89 1013.45 1013.93 1014.23 1014.31 1014.14 1013.74 1013.18 1012.54 1011.93 1011.43 1011.12 1011.04 1011.17 1011.48 1011.92 1012.41 1012.90 1013.34 1013.71 1014.01 1014.26 1014.49 1014.71 1014.94 1015.18 1015.42 1015.63 1015.79 1015.88 1015.89 1015.83 1015.71 1015.56 1015.39 1015.24 1015.11
1011.53 1011.46 1011.43 1011.47 1011.64 1011.94 1012.34 1012.82 1013.28 1013.65 1013.86 1013.86 1013.63 1013.20 1012.62 1011.98 1011.38 1010.92 1010.65 1010.60 1010.78 1011.14 1011.63 1012.17 1012.72 1013.20 1013.61 1013.94 1014.20 1014.41 1014.61 1014.79 1014.98 1015.15 1015.30 1015.41 1015.46 1015.44 1015.36 1015.23 1015.06 1014.89 1014.73 1014.59
1011.57 1011.56 1011.56 1011.61 1011.74 1011.98 1012.29 1012.66 1013.00 1013.26 1013.38 1013.31 1013.04 1012.60 1012.04 1011.44 1010.90 1010.49 1010.27 1010.27 1010.48 1010.88 1011.40 1011.97 1012.54 1013.05 1013.48 1013.82 1014.08 1014.28 1014.45 1014.60 1014.73 1014.85 1014.95 1015.01 1015.01 1014.97 1014.86 1014.72 1014.56 1014.39 1014.24 1014.10
1011.55 1011.59 1011.62 1011.67 1011.77 1011.93 1012.15 1012.39 1012.61 1012.76 1012.78 1012.66 1012.38 1011.96 1011.45 1010.92 1010.46 1010.13 1009.97 1010.02 1010.26 1010.67 1011.19 1011.77 1012.33 1012.84 1013.27 1013.61 1013.87 1014.06 1014.21 1014.33 1014.43 1014.51 1014.56 1014.58 1014.56 1014.49 1014.38 1014.23 1014.08 1013.92 1013.78 1013.66
1011.45 1011.55 1011.62 1011.67 1011.72 1011.81 1011.91 1012.03 1012.12 1012.16 1012.11 1011.94 1011.66 1011.28 1010.85 1010.42 1010.06 1009.81 1009.73 1009.82 1010.08 1010.48 1010.98 1011.53 1012.06 1012.55 1012.96 1013.29 1013.55 1013.74 1013.88 1013.98 1014.06 1014.12 1014.15 1014.15 1014.10 1014.02 1013.91 1013.77 1013.63 1013.50 1013.37 1013.27
1011.34 1011.49 1011.57 1011.61 1011.62 1011.62 1011.62 1011.61 1011.58 1011.51 1011.39 1011.19 1010.92 1010.60 1010.25 1009.92 1009.66 1009.51 1009.49 1009.62 1009.89 1010.28 1010.74 1011.24 1011.73 1012.17 1012.56 1012.87 1013.12 1013.32 1013.46 1013.57 1013.65 1013.71 1013.73 1013.72 1013.67 1013.59 1013.48 1013.35 1013.22 1013.10 1013.00 1012.91
1011.25 1011.42 1011.51 1011.53 1011.49 1011.41 1011.31 1011.18 1011.04 1010.87 1010.68 1010.45 1010.19 1009.92 1009.65 1009.43 1009.26 1009.20 1009.24 1009.40 1009.67 1010.03 1010.45 1010.89 1011.33 1011.73 1012.08 1012.39 1012.64 1012.84 1013.00 1013.13 1013.23 1013.29 1013.32 1013.31 1013.27 1013.19 1013.08 1012.96 1012.84 1012.73 1012.63 1012.55
1011.21 1011.38 1011.47 1011.46 1011.37 1011.22 1011.02 1010.79 1010.54 1010.28 1010.02 1009.76 1009.50 1009.27 1009.06 1008.91 1008.83 1008.84 1008.93 1009.12 1009.39 1009.73 1010.10 1010.49 1010.88 1011.24 1011.58 1011.87 1012.13 1012.36 1012.55 1012.70 1012.83 1012.92 1012.96 1012.96 1012.92 1012.84 1012.72 1012.60 1012.47 1012.35 1012.24 1012.14
1011.19 1011.36 1011.43 1011.39 1011.26 1011.04 1010.76 1010.45 1010.11 1009.77 1009.44 1009.14 1008.87 1008.65 1008.48 1008.38 1008.36 1008.41 1008.55 1008.76 1009.03 1009.34 1009.69 1010.05 1010.41 1010.75 1011.08 1011.38 1011.66 1011.91 1012.14 1012.33 1012.49 1012.60 1012.66 1012.66 1012.62 1012.52 1012.39 1012.24 1012.09 1011.93 1011.79 1011.66
1011.16 1011.30 1011.34 1011.28 1011.11 1010.86 1010.52 1010.14 1009.73 1009.33 1008.94 1008.59 1008.29 1008.06 1007.90 1007.83 1007.83 1007.92 1008.08 1008.30 1008.58 1008.89 1009.23 1009.58 1009.93 1010.28 1010.61 1010.94 1011.25 1011.54 1011.81 1012.04 1012.22 1012.35 1012.42 1012.42 1012.36 1012.24 1012.07 1011.88 1011.68 1011.48 1011.29 1011.11
1011.03 1011.14 1011.16 1011.09 1010.91 1010.63 1010.27 1009.85 1009.40 1008.94 1008.51 1008.11 1007.78 1007.52 1007.34 1007.26 1007.27 1007.37 1007.54 1007.77 1008.05 1008.38 1008.72 1009.08 1009.45 1009.82 1010.19 1010.55 1010.90 1011.23 1011.54 1011.80 1012.01 1012.15 1012.21 1012.20 1012.11 1011.95 1011.73 1011.49 1011.23 1010.97 1010.72 1010.50
1010.76 1010.84 1010.85 1010.78 1010.60 1010.34 1009.98 1009.56 1009.10 1008.62 1008.15 1007.71 1007.33 1007.04 1006.83 1006.72 1006.71 1006.79 1006.96 1007.19 1007.49 1007.82 1008.19 1008.57 1008.97 1009.37 1009.78 1010.19 1010.58 1010.96 1011.29 1011.58 1011.80 1011.95 1012.00 1011.96 1011.83 1011.62 1011.36 1011.05 1010.73 1010.42 1010.12 1009.85
1010.34 1010.41 1010.42 1010.36 1010.22 1009.99 1009.67 1009.28 1008.84 1008.36 1007.87 1007.41 1007.00 1006.66 1006.41 1006.25 1006.21 1006.26 1006.40 1006.63 1006.92 1007.26 1007.65 1008.06 1008.49 1008.93 1009.38 1009.82 1010.25 1010.66 1011.02 1011.33 1011.55 1011.69 1011.72 1011.65 1011.49 1011.23 1010.92 1010.56 1010.19 1009.83 1009.50 1009.20
1009.82 1009.88 1009.91 1009.89 1009.80 1009.63 1009.38 1009.05 1008.65 1008.20 1007.72 1007.25 1006.81 1006.43 1006.13 1005.93 1005.83 1005.84 1005.94 1006.14 1006.41 1006.75 1007.14 1007.56 1008.01 1008.48 1008.95 1009.42 1009.88 1010.30 1010.67 1010.98 1011.20 1011.32 1011.33 1011.24 1011.04 1010.75 1010.39 1010.00 1009.60 1009.22 1008.87 1008.57
1009.31 1009.39 1009.45 1009.48 1009.46 1009.36 1009.19 1008.93 1008.59 1008.19 1007.74 1007.27 1006.82 1006.41 1006.06 1005.80 1005.64 1005.59 1005.65 1005.80 1006.03 1006.34 1006.71 1007.12 1007.56 1008.03 1008.50 1008.96 1009.42 1009.83 1010.20 1010.50 1010.70 1010.81 1010.80 1010.69 1010.47 1010.16 1009.79 1009.38 1008.98 1008.59 1008.26 1007.98
1008.94 1009.05 1009.15 1009.24 1009.28 1009.27 1009.18 1008.99 1008.72 1008.37 1007.96 1007.51 1007.05 1006.62 1006.23 1005.92 1005.70 1005.59 1005.58 1005.66 1005.84 1006.09 1006.41 1006.77 1007.17 1007.59 1008.02 1008.46 1008.88 1009.26 1009.60 1009.87 1010.06 1010.15 1010.13 1010.00 1009.78 1009.48 1009.11 1008.72 1008.33 1007.98 1007.67 1007.43
1008.82 1008.96 1009.12 1009.26 1009.36 1009.41 1009.39 1009.27 1009.06 1008.76 1008.39 1007.96 1007.51 1007.06 1006.65 1006.30 1006.03 1005.85 1005.76 1005.77 1005.87 1006.04 1006.27 1006.55 1006.87 1007.21 1007.57 1007.93 1008.28 1008.61 1008.90 1009.13 1009.29 1009.36 1009.34 1009.22 1009.01 1008.72 1008.39 1008.03 1007.68 1007.37 1007.11 1006.91
Thickness
5778 5770 5768 5772 5774 5770 5765 5760 5757 5757 5760 5756 5751 5749 5747 5746 5745 5743 5743 5740 5739 5738 5741 5742 5741 5741 5739 5736 5732 5730 5727 5723 5720 5718 5716 5712 5710 5707 5703 5699 5694 5691 5689 5687
5772 5771 5780 5781 5776 5769 5764 5757 5756 5754 5755 5753 5747 5744 5746 5743 5740 5740 5738 5736 5737 5737 5737 5737 5737 5737 5735 5732 5729 5726 5723 5721 5717 5714 5710 5707 5704 5702 5698 5694 5688 5685 5683 5681
5769 5780 5784 5777 5772 5766 5765 5760 5757 5752 5751 5752 5746 5739 5738 5740 5740 5737 5737 5739 5739 5737 5736 5736 5736 5735 5734 5731 5728 5726 5721 5717 5713 5709 5707 5702 5697 5695 5694 5689 5686 5682 5678 5676
5780 5786 5779 5774 5772 5769 5762 5766 5761 5753 5748 5748 5744 5734 5739 5740 5735 5735 5736 5738 5740 5740 5740 5739 5737 5735 5734 5732 5729 5724 5719 5714 5710 5706 5703 5699 5693 5691 5688 5684 5682 5678 5674 5672
5780 5783 5777 5771 5772 5772 5765 5766 5762 5757 5752 5748 5747 5740 5741 5741 5734 5737 5741 5743 5745 5745 5744 5741 5740 5738 5736 5734 5729 5724 5718 5713 5708 5703 5699 5694 5691 5689 5686 5681 5678 5674 5674 5669
5785 5790 5785 5779 5778 5776 5768 5763 5759 5759 5759 5740 5741 5738 5738 5745 5742 5744 5747 5748 5748 5748 5747 5744 5743 5740 5736 5734 5729 5724 5717 5711 5706 5701 5697 5691 5687 5683 5679 5676 5674 5673 5672 5669
5776 5782 5785 5784 5771 5768 5767 5758 5748 5745 5744 5739 5744 5741 5743 5753 5755 5754 5752 5751 5751 5751 5748 5744 5741 5738 5735 5732 5728 5723 5716 5709 5704 5699 5694 5690 5684 5680 5676 5673 5673 5669 5668 5666
5763 5765 5779 5780 5775 5769 5766 5762 5743 5729 5734 5745 5745 5741 5753 5761 5760 5759 5758 5757 5754 5752 5749 5745 5742 5739 5735 5731 5726 5720 5714 5707 5703 5697 5692 5687 5681 5679 5677 5672 5668 5666 5663 5662
5765 5763 5780 5781 5782 5775 5765 5765 5770 5755 5748 5742 5746 5750 5760 5761 5758 5757 5756 5755 5753 5752 5750 5747 5743 5739 5734 5729 5723 5718 5711 5705 5700 5695 5689 5684 5679 5675 5672 5667 5664 5663 5659 5656
5774 5759 5774 5779 5778 5772 5773 5770 5759 5752 5732 5731 5740 5744 5749 5754 5756 5758 5757 5756 5756 5754 5751 5747 5743 5738 5733 5728 5721 5716 5709 5703 5698 5692 5687 5684 5677 5673 5668 5664 5660 5656 5653 5649
5776 5758 5766 5771 5765 5766 5760 5759 5757 5757 5748 5733 5732 5746 5769 5765 5765 5763 5762 5762 5759 5756 5752 5747 5741 5736 5730 5725 5719 5712 5706 5700 5695 5690 5684 5679 5674 5670 5666 5661 5657 5653 5649 5644
5771 5764 5757 5765 5774 5776 5770 5764 5757 5742 5740 5742 5740 5751 5777 5774 5773 5770 5767 5765 5761 5757 5752 5746 5739 5732 5726 5721 5716 5710 5705 5699 5693 5688 5681 5676 5671 5666 5661 5658 5654 5649 5645 5641
5766 5755 5745 5750 5756 5763 5762 5763 5762 5759 5751 5743 5738 5752 5772 5772 5770 5770 5766 5763 5758 5752 5747 5742 5735 5729 5724 5719 5714 5709 5703 5697 5692 5686 5679 5673 5668 5663 5658 5654 5649 5645 5640 5636
5768 5756 5748 5741 5750 5761 5757 5759 5758 5753 5745 5746 5748 5754 5766 5767 5765 5766 5764 5761 5756 5749 5742 5738 5732 5726 5722 5716 5710 5705 5700 5695 5689 5682 5676 5670 5665 5660 5655 5650 5645 5640 5636 5631
5762 5753 5757 5760 5765 5762 5758 5757 5759 5752 5751 5747 5752 5756 5764 5768 5768 5767 5764 5758 5751 5745 5740 5735 5730 5725 5719 5713 5707 5702 5697 5691 5685 5678 5672 5667 5662 5657 5651 5646 5641 5636 5631 5627
5756 5748 5752 5751 5762 5759 5754 5758 5760 5757 5756 5754 5754 5756 5772 5771 5767 5762 5758 5754 5748 5743 5739 5735 5729 5723 5717 5711 5705 5700 5693 5687 5681 5674 5669 5664 5658 5652 5647 5642 5637 5631 5626 5621
5756 5745 5740 5742 5758 5752 5744 5760 5760 5759 5762 5758 5752 5760 5766 5762 5759 5757 5755 5751 5747 5744 5740 5734 5728 5722 5716 5711 5704 5697 5691 5685 5677 5671 5665 5660 5654 5649 5643 5638 5632 5626 5620 5615
5749 5742 5742 5743 5741 5722 5756 5777 5771 5762 5763 5766 5763 5764 5763 5760 5760 5760 5757 5751 5747 5744 5739 5734 5729 5723 5717 5710 5703 5694 5689 5681 5674 5667 5662 5657 5650 5644 5639 5632 5626 5620 5615 5609
5749 5741 5740 5739 5735 5740 5760 5769 5766 5756 5755 5770 5764 5763 5763 5760 5755 5757 5758 5754 5749 5745 5740 5734 5729 5724 5716 5708 5700 5691 5684 5678 5671 5665 5658 5653 5646 5640 5633 5627 5621 5615 5609 5604
5741 5740 5738 5734 5724 5725 5751 5767 5772 5760 5746 5769 5765 5760 5759 5752 5743 5753 5760 5754 5748 5744 5738 5732 5726 5719 5710 5704 5697 5687 5680 5674 5667 5661 5655 5648 5641 5634 5628 5622 5615 5610 5604 5599
5735 5730 5731 5731 5726 5742 5759 5764 5761 5736 5740 5761 5763 5760 5757 5751 5751 5756 5757 5751 5745 5739 5734 5727 5721 5713 5706 5700 5691 5681 5676 5670 5665 5658 5651 5643 5637 5630 5624 5617 5611 5605 5599 5594
5737 5735 5729 5730 5722 5731 5752 5755 5745 5744 5754 5757 5756 5757 5754 5753 5754 5752 5749 5744 5739 5733 5729 5723 5714 5708 5702 5695 5685 5678 5671 5667 5661 5653 5646 5639 5633 5626 5621 5613 5606 5600 5594 5590
5740 5741 5741 5737 5736 5743 5751 5746 5748 5749 5746 5747 5749 5752 5752 5749 5748 5747 5742 5738 5734 5729 5724 5719 5710 5703 5697 5689 5681 5673 5669 5662 5655 5647 5640 5633 5627 5621 5615 5609 5603 5597 5593 5588
5740 5736 5733 5729 5739 5741 5741 5740 5739 5739 5738 5742 5745 5746 5746 5743 5743 5740 5736 5732 5728 5724 5718 5712 5705 5698 5691 5685 5677 5670 5664 5657 5649 5641 5635 5629 5623 5617 5612 5605 5600 5595 5591 5586
5728 5727 5725 5722 5729 5731 5731 5724 5725 5728 5732 5734 5737 5739 5738 5736 5734 5732 5728 5725 5721 5716 5711 5705 5698 5691 5686 5680 5673 5666 5659 5650 5643 5636 5630 5624 5619 5615 5607 5602 5597 5591 5586 5580
5717 5715 5713 5713 5712 5712 5709 5712 5715 5716 5718 5720 5722 5724 5726 5725 5723 5722 5719 5716 5712 5707 5702 5696 5690 5685 5680 5674 5667 5660 5653 5646 5638 5632 5626 5621 5616 5611 5605 5600 5596 5591 5582 5575